User: anonymous   Login
Location: Unspecified
(0.0000°N, 0.0000°E)
Time: 07:15:16
(UTC+01:00)
Language:

Iridium 33 - Orbit

View from above orbital plane
View from above orbital plane
View from above satellite
View from above satellite

Ground track
Ground track

The orbit data is extracted from the following two-line orbital elements,

1 24946U 97051C   14303.46353295  .00000429  00000-0  14883-3 0  1393
2 24946 086.3863 328.7599 0009991 127.2467 349.5888 14.33214309896414
Epoch (UTC): 30 October 2014 11:07:29
Eccentricity: 0.0009991
inclination: 86.3863°
perigee height: 774 km
apogee height: 788 km
right ascension of ascending node: 328.7599°
argument of perigee: 127.2467°
revolutions per day: 14.33214309
mean anomaly at epoch: 349.5888°
orbit number at epoch: 89641

The dashed part of the orbit path shows where the satellite is in the earth's shadow,  

DLR